Wind_Speed
14 14 13 13 14 14 15 15 16 17 17 18 18 18 17 17 17 18 18 18 18 18 19 19 19 19 19 19 18 18 18 18 18 18 18 18 18 18 18 18 18 18 18 18 18 18 19 19 20 20 20 21
16 16 15 15 15 15 16 17 17 17 17 17 17 17 17 17 18 18 18 19 19 19 19 19 19 19 19 19 18 18 18 18 17 17 17 17 18 18 18 18 17 17 17 18 18 18 18 19 19 20 21 21
18 18 17 16 16 16 17 18 17 17 17 17 17 18 18 18 18 18 19 19 19 19 19 19 19 18 18 18 18 17 16 16 15 15 15 15 15 15 15 15 15 15 15 15 16 16 16 17 18 18 19 20
19 19 18 17 17 17 17 17 17 16 17 17 18 18 19 19 19 19 19 19 18 18 18 17 17 16 15 15 14 13 12 12 11 11 10 10 11 11 11 11 11 11 11 11 11 12 12 13 14 15 16 17
19 18 18 17 17 17 17 17 16 17 18 19 19 19 19 19 19 19 18 18 18 17 16 14 13 12 11 10 10 9 9 8 8 8 8 9 9 9 9 10 10 10 10 10 10 10 10 10 11 11 12 13
20 18 18 17 17 17 17 17 17 17 18 19 20 19 19 19 18 18 18 17 16 14 13 11 10 9 9 8 8 8 8 9 9 9 9 10 10 11 11 11 12 12 12 12 12 12 12 12 12 12 12 12
20 19 18 17 17 17 17 17 17 18 19 20 20 19 19 18 18 17 16 14 13 11 11 10 10 9 9 9 9 10 10 11 11 11 12 12 13 13 14 14 15 15 15 15 16 16 16 15 15 15 15 15
20 19 18 18 17 17 17 17 18 19 19 20 20 19 18 17 17 15 13 12 11 11 11 11 11 11 11 11 12 12 13 13 14 14 15 15 16 16 17 17 18 18 18 18 19 19 19 19 19 19 18 18
21 20 19 18 18 18 17 18 19 19 19 19 19 18 18 16 15 14 13 12 12 12 12 12 13 13 14 14 15 15 16 16 17 17 18 18 19 19 19 20 20 21 21 21 21 22 22 22 22 22 22 21
21 20 19 19 19 18 18 19 20 20 19 19 18 18 17 16 14 14 14 14 13 13 14 14 15 16 16 17 17 18 19 19 19 20 20 20 21 21 21 21 22 22 23 23 23 23 24 24 24 24 24 24
21 20 20 20 19 19 19 20 20 19 19 19 18 17 16 16 15 15 15 15 15 15 16 17 17 18 19 19 19 20 21 21 21 22 22 22 22 23 23 23 23 24 24 24 24 25 25 25 26 26 26 26
21 21 20 20 19 19 20 20 19 19 19 19 18 17 16 17 17 17 16 17 17 17 18 19 20 20 20 21 21 21 22 22 23 23 23 23 24 24 24 24 24 25 25 25 26 26 26 26 27 27 27 27
22 21 21 20 20 20 20 20 19 20 20 19 18 18 17 18 18 18 18 19 19 19 20 20 21 21 21 22 22 23 23 23 24 24 24 25 25 25 25 25 25 25 26 26 26 26 27 27 27 27 28 28
22 22 21 20 20 20 19 19 20 21 20 19 19 19 19 19 20 20 20 20 21 21 21 21 22 22 23 23 23 24 24 25 25 25 25 26 26 26 26 26 26 26 26 26 26 26 27 27 27 28 28 29
22 22 21 20 20 20 19 20 21 21 21 20 20 21 20 20 21 21 22 22 22 22 22 22 23 23 24 24 24 25 25 25 26 26 26 26 26 26 26 26 26 26 26 26 26 26 26 27 27 28 28 29
23 22 21 20 20 19 19 21 21 21 21 21 21 22 22 22 22 23 23 23 22 23 23 23 24 24 25 25 25 25 25 26 26 26 26 26 26 26 26 26 26 26 26 26 26 26 26 27 27 27 28 29
23 22 21 20 20 20 20 21 22 22 22 22 23 23 23 23 23 23 24 24 23 24 24 24 24 25 26 26 26 26 26 26 26 26 26 26 26 26 26 26 26 26 26 26 26 26 27 27 27 27 28 28
23 22 21 20 20 20 21 22 22 23 23 23 24 24 24 24 24 24 24 25 25 24 25 25 25 26 26 26 26 26 26 26 26 26 26 26 26 26 26 26 26 27 26 26 27 27 27 27 27 28 28 28
23 22 22 21 21 21 22 23 23 24 24 24 25 25 25 24 24 25 26 26 25 25 25 25 26 26 26 26 26 26 26 27 27 27 27 27 27 27 27 27 28 28 27 27 28 28 28 28 28 29 29 29
23 23 23 22 22 22 23 24 24 24 25 24 25 25 25 25 26 26 27 27 26 26 25 26 26 27 27 27 27 27 27 28 28 28 28 28 28 29 29 29 29 29 29 29 29 29 29 30 30 30 31 31
24 24 24 23 23 24 24 25 25 25 25 25 24 25 25 26 27 27 28 28 27 26 26 26 27 27 28 27 28 29 29 29 29 29 30 30 30 30 30 31 31 31 30 30 30 30 31 31 31 32 32 32
25 25 25 25 25 25 25 25 25 26 26 25 24 25 26 28 29 29 28 29 28 27 26 27 27 28 29 29 30 30 30 30 31 31 32 32 32 32 32 32 32 32 32 32 32 32 32 32 33 33 33 33
27 27 28 27 26 26 25 25 26 26 26 26 26 27 28 29 30 29 29 29 29 28 27 27 28 29 30 30 31 31 31 32 32 32 33 33 34 34 34 34 34 34 34 34 34 34 34 34 34 34 34 35
29 29 28 27 27 26 25 25 26 27 27 28 28 28 29 30 30 30 30 30 29 28 28 28 29 30 32 32 32 32 32 33 33 34 34 34 35 35 35 35 35 36 35 35 35 36 36 36 36 36 36 36
30 29 29 29 28 26 25 26 28 29 29 29 29 30 31 31 31 31 30 30 29 29 28 29 30 32 33 33 33 33 33 34 34 34 35 35 35 35 36 36 36 36 36 37 37 37 37 37 37 37 37 38
30 30 29 29 28 27 28 29 30 30 30 31 32 32 33 32 31 31 30 29 29 30 30 30 31 33 34 35 35 34 34 35 35 35 35 36 35 35 36 36 36 37 37 37 37 37 38 38 39 39 39 39
30 30 30 31 31 31 32 32 33 33 34 34 34 34 33 32 31 30 29 29 30 31 32 32 33 34 35 36 36 35 36 36 36 36 36 36 36 37 36 36 36 37 37 38 38 38 39 39 39 40 39 39
30 30 32 33 34 35 36 36 36 37 37 36 35 34 32 31 31 30 30 31 32 33 33 34 34 34 36 36 37 36 37 37 36 36 37 37 38 38 37 37 37 38 37 37 38 38 39 39 40 40 39 39
32 33 35 36 37 38 38 39 38 39 38 36 35 34 32 31 32 33 34 34 35 35 35 35 35 35 36 37 38 38 37 37 37 37 38 38 38 38 38 38 39 38 38 38 39 39 39 39 40 40 40 40
35 36 37 38 39 40 40 40 39 38 37 37 37 36 35 35 35 36 37 37 37 38 38 37 37 37 37 38 39 39 39 39 38 38 38 39 39 40 39 40 41 40 39 40 41 40 40 40 40 41 41 40
35 37 39 39 40 40 40 40 39 38 38 39 40 39 39 38 38 38 38 39 39 40 40 40 40 39 39 40 41 41 41 40 39 39 39 40 41 41 41 42 42 40 40 42 43 42 42 42 42 42 42 42
Wind_Direction
272 273 271 269 269 270 271 271 271 271 271 272 272 273 274 275 275 276 277 278 279 279 279 279 278 278 278 278 277 276 275 273 272 271 271 271 271 271 271 271 270 271 270 270 269 270 270 271 272 272 272 272
275 274 274 273 272 270 269 269 269 269 270 271 272 273 273 274 275 275 276 277 277 278 278 277 276 276 276 276 275 275 274 273 272 271 270 270 270 271 270 270 270 270 270 270 270 269 269 269 269 270 271 271
272 272 272 272 271 269 267 267 267 268 269 270 272 273 274 275 276 276 276 276 276 276 275 275 274 274 273 273 272 272 271 271 271 270 269 270 270 271 272 272 272 272 272 272 272 271 270 270 270 270 271 271
269 269 270 270 269 266 264 263 265 267 269 270 271 272 274 275 276 276 276 276 275 274 273 273 272 270 269 268 268 267 267 267 267 269 269 269 270 272 275 276 278 279 279 279 278 279 277 276 274 274 274 274
268 268 268 267 265 263 262 263 265 268 270 271 272 273 274 274 274 273 273 273 273 273 271 268 265 263 262 261 263 264 266 268 268 271 273 274 275 276 278 280 283 285 287 287 287 287 286 285 283 282 281 280
267 265 264 263 262 261 262 264 267 270 272 273 274 274 273 272 271 270 270 270 268 266 263 260 258 257 258 260 264 268 271 276 277 279 282 283 283 284 285 284 285 286 287 288 288 288 287 286 286 285 284 284
266 264 262 260 260 261 264 266 269 271 273 274 274 273 271 270 270 269 266 263 260 257 256 257 259 262 266 270 272 276 279 281 284 285 286 286 287 288 288 288 288 287 288 288 288 288 287 286 285 284 284 283
264 263 261 260 260 261 265 269 272 273 273 272 272 271 269 268 267 265 260 256 256 257 260 262 266 270 273 277 280 282 284 285 286 287 287 287 288 288 288 289 289 288 288 288 288 287 287 287 286 285 284 283
262 262 262 263 263 265 269 272 274 274 272 269 267 268 267 265 260 259 258 257 258 261 265 269 273 276 279 282 284 286 287 287 288 288 288 288 288 288 287 287 287 287 287 286 286 286 286 286 286 285 284 284
261 262 263 264 265 268 271 273 274 272 268 265 263 263 262 260 256 255 259 260 262 266 270 274 277 280 282 284 285 286 288 288 289 289 289 288 288 287 286 286 285 285 285 284 284 284 284 284 284 284 283 283
261 262 262 263 266 269 271 271 271 267 263 262 259 257 257 259 259 258 260 264 267 270 274 277 280 282 283 285 286 288 288 289 289 289 288 288 287 287 286 285 285 285 284 284 283 283 282 282 282 282 282 282
259 260 261 262 266 268 268 268 266 262 260 259 257 255 256 258 261 262 264 268 271 274 276 279 281 283 284 286 287 288 288 288 288 288 287 287 287 286 286 285 284 284 283 283 283 282 282 281 281 280 280 280
255 257 259 261 264 265 264 264 261 260 260 258 258 257 258 259 263 265 268 270 273 275 277 279 281 283 284 285 286 286 286 287 286 287 286 286 286 286 286 285 285 284 283 283 282 282 282 281 280 280 280 280
253 255 256 259 262 262 260 259 258 258 259 258 259 260 260 262 264 267 269 271 273 275 277 279 281 282 283 284 285 285 285 286 286 286 286 286 286 286 286 286 286 285 285 285 284 284 283 283 282 282 281 281
254 254 255 258 258 257 256 256 256 257 258 259 260 261 262 263 266 268 270 272 274 276 278 279 281 282 283 283 284 284 285 285 285 285 285 285 285 286 286 286 286 286 287 286 286 286 286 286 285 285 285 284
254 254 255 256 253 252 253 254 256 259 260 261 262 262 263 265 267 269 271 272 274 276 277 279 280 280 281 282 282 283 283 283 283 284 284 284 284 284 285 286 286 286 286 287 287 288 288 288 288 288 288 287
252 253 253 253 251 251 252 255 258 260 261 262 262 263 264 265 267 269 270 272 273 275 276 277 278 278 279 280 281 281 282 282 282 282 282 282 283 283 284 284 285 285 286 287 287 288 288 289 290 290 290 289
249 251 252 250 250 251 253 256 258 260 261 262 263 264 265 266 267 268 270 271 272 273 274 275 275 276 277 277 279 279 279 279 280 280 280 281 281 282 283 283 284 285 285 286 287 287 288 289 289 290 290 290
247 247 247 247 248 251 254 256 257 258 260 261 262 264 265 266 267 268 269 270 271 272 272 273 274 274 275 277 277 278 278 278 278 279 279 280 280 281 281 282 283 284 284 285 286 287 287 288 289 290 290 290
244 244 244 245 247 251 254 256 257 258 259 260 262 265 267 268 268 269 270 271 272 272 272 273 274 275 276 277 277 277 277 277 278 278 278 279 279 280 280 281 282 283 283 284 285 286 287 288 288 289 289 290
244 244 245 246 248 251 253 255 257 259 260 261 264 266 268 269 269 270 271 272 272 272 272 273 274 276 277 277 277 277 277 277 278 278 278 278 279 279 279 280 281 281 281 282 283 283 285 285 286 287 288 289
246 246 246 248 249 251 254 256 259 261 262 263 265 265 266 267 268 270 271 271 271 271 271 272 274 276 276 276 276 277 277 278 278 278 279 279 279 279 279 279 280 280 280 280 281 281 282 283 283 285 285 286
247 247 247 249 251 253 256 259 261 263 263 263 263 263 264 266 268 270 270 270 270 271 272 273 275 275 275 276 276 277 278 279 279 279 279 279 280 280 279 280 280 280 280 279 280 280 280 281 281 282 283 284
248 248 250 252 253 255 257 260 262 262 262 261 261 262 263 265 267 268 268 269 271 272 273 274 274 274 275 276 277 278 279 279 279 279 280 280 280 280 280 280 280 280 280 279 279 279 279 280 280 281 281 282
250 251 253 254 255 256 257 258 259 259 260 261 262 262 263 264 265 267 269 271 273 274 274 274 273 274 275 276 277 278 279 279 279 280 281 281 281 281 281 281 281 281 281 280 280 280 280 280 280 280 281 281
253 254 255 256 257 256 255 255 257 258 259 260 261 262 264 265 266 269 272 273 274 274 274 273 273 274 275 276 277 278 278 278 279 280 280 281 281 281 281 282 282 282 282 281 281 281 281 281 281 281 281 281
255 256 256 257 256 255 254 254 255 257 258 259 262 265 267 268 269 271 273 273 273 272 272 272 273 274 275 276 277 277 278 278 279 279 280 280 280 281 282 283 283 283 282 282 282 282 282 282 283 282 283 283
255 255 254 254 254 253 254 254 255 257 259 262 266 269 270 271 272 272 271 270 270 270 271 272 273 274 275 276 277 277 277 278 279 279 279 279 280 281 283 283 283 283 283 283 283 282 283 283 283 283 284 284
251 251 252 252 253 254 255 255 256 258 262 265 268 270 271 270 269 267 266 266 268 269 270 272 273 274 275 276 276 277 277 277 278 278 278 279 280 281 282 282 282 283 284 284 283 282 283 283 283 284 284 284
253 252 253 254 255 256 257 258 259 260 263 264 265 265 265 264 264 263 264 265 266 268 269 271 272 273 274 275 276 277 277 276 277 278 279 280 280 280 281 282 282 283 285 284 283 283 284 283 283 284 284 284
257 257 257 257 258 258 259 260 262 262 262 262 262 263 263 263 264 265 265 266 266 267 269 270 271 272 273 274 275 276 276 276 277 278 278 278 279 279 280 280 281 283 283 282 283 285 284 284 284 284 284 284
Height
3149 3149 3150 3150 3150 3150 3150 3150 3150 3150 3149 3149 3149 3149 3148 3148 3148 3148 3148 3147 3147 3147 3147 3147 3146 3146 3146 3146 3146 3146 3146 3146 3146 3146 3146 3145 3145 3145 3145 3145 3145 3145 3145 3145 3146 3146 3146 3146 3146 3145 3146 3146
3147 3147 3148 3148 3148 3148 3148 3148 3148 3148 3147 3147 3147 3146 3146 3146 3146 3146 3146 3146 3145 3145 3145 3145 3145 3144 3144 3144 3144 3144 3144 3143 3144 3144 3143 3143 3143 3143 3143 3143 3143 3143 3143 3143 3143 3144 3144 3144 3144 3144 3143 3143
3145 3145 3146 3146 3146 3146 3146 3146 3145 3145 3145 3145 3145 3144 3144 3144 3144 3144 3144 3144 3143 3143 3143 3143 3143 3142 3142 3142 3142 3142 3141 3141 3141 3141 3141 3141 3141 3141 3141 3141 3141 3141 3141 3141 3141 3141 3142 3141 3142 3142 3141 3141
3143 3143 3144 3144 3144 3144 3144 3144 3143 3143 3143 3143 3143 3142 3142 3142 3142 3142 3142 3141 3141 3141 3141 3141 3140 3140 3140 3140 3140 3140 3140 3140 3140 3140 3140 3140 3140 3140 3139 3139 3139 3139 3139 3139 3139 3139 3139 3140 3140 3140 3139 3139
3141 3141 3142 3142 3142 3142 3142 3141 3141 3141 3141 3140 3140 3140 3140 3140 3140 3140 3139 3139 3139 3139 3139 3139 3139 3139 3138 3138 3138 3138 3138 3139 3139 3139 3139 3139 3138 3138 3138 3138 3138 3138 3138 3138 3138 3138 3138 3138 3138 3138 3138 3137
3138 3139 3139 3140 3140 3139 3139 3139 3139 3139 3139 3138 3138 3138 3138 3138 3138 3138 3137 3137 3137 3137 3137 3137 3137 3137 3137 3137 3137 3137 3137 3137 3137 3137 3137 3137 3137 3137 3137 3137 3137 3136 3136 3136 3136 3136 3136 3136 3136 3136 3136 3136
3136 3136 3137 3137 3137 3137 3136 3136 3136 3136 3136 3135 3135 3136 3136 3136 3135 3136 3136 3135 3135 3136 3136 3136 3136 3136 3136 3136 3136 3136 3136 3136 3136 3136 3136 3136 3136 3136 3136 3135 3135 3135 3135 3135 3134 3134 3134 3134 3134 3134 3134 3134
3133 3133 3134 3134 3134 3134 3134 3134 3134 3134 3134 3133 3133 3133 3133 3133 3133 3133 3134 3134 3134 3134 3134 3134 3134 3134 3134 3134 3134 3134 3134 3134 3134 3134 3134 3134 3134 3134 3134 3133 3133 3133 3133 3133 3133 3132 3132 3132 3132 3132 3132 3132
3130 3130 3130 3131 3131 3131 3131 3131 3131 3131 3131 3131 3131 3131 3131 3131 3132 3132 3132 3132 3132 3132 3132 3132 3132 3132 3132 3132 3133 3132 3132 3132 3132 3132 3132 3132 3132 3132 3132 3132 3131 3131 3131 3131 3131 3130 3130 3130 3130 3130 3130 3130
3127 3127 3127 3127 3127 3127 3128 3128 3128 3128 3129 3129 3129 3129 3129 3129 3130 3130 3130 3130 3130 3131 3130 3130 3130 3130 3130 3130 3130 3130 3130 3130 3130 3130 3130 3130 3129 3130 3129 3129 3129 3129 3128 3128 3128 3128 3128 3127 3127 3127 3127 3127
3124 3124 3124 3124 3124 3125 3125 3125 3126 3126 3126 3127 3127 3127 3127 3127 3127 3128 3128 3128 3128 3129 3128 3128 3128 3128 3128 3128 3128 3128 3128 3127 3127 3127 3127 3127 3127 3127 3127 3127 3126 3126 3126 3126 3125 3125 3125 3125 3125 3124 3124 3124
3121 3121 3121 3121 3122 3122 3122 3122 3123 3123 3124 3124 3124 3125 3125 3125 3125 3125 3126 3126 3126 3126 3126 3126 3125 3125 3125 3125 3125 3125 3125 3125 3125 3125 3125 3124 3124 3124 3124 3124 3124 3123 3123 3123 3123 3122 3122 3122 3122 3122 3121 3121
3118 3118 3118 3119 3119 3119 3119 3120 3120 3120 3121 3121 3122 3122 3123 3123 3123 3123 3123 3123 3123 3123 3123 3123 3123 3123 3123 3123 3123 3123 3122 3122 3122 3122 3122 3122 3121 3121 3121 3121 3121 3121 3120 3120 3120 3120 3119 3119 3119 3119 3119 3118
3115 3115 3115 3116 3116 3116 3117 3117 3117 3118 3119 3119 3119 3120 3120 3120 3120 3120 3120 3121 3121 3121 3121 3120 3120 3120 3120 3120 3120 3120 3120 3119 3119 3119 3119 3119 3119 3118 3118 3118 3118 3118 3117 3117 3117 3117 3117 3116 3116 3116 3116 3115
3112 3112 3113 3113 3113 3113 3114 3115 3115 3116 3116 3117 3117 3117 3117 3118 3118 3118 3118 3118 3118 3118 3118 3117 3117 3117 3117 3117 3117 3117 3117 3117 3116 3116 3116 3116 3116 3116 3115 3115 3115 3115 3114 3114 3114 3114 3113 3113 3113 3113 3113 3112
3109 3109 3110 3110 3110 3111 3112 3112 3113 3113 3114 3114 3114 3114 3115 3115 3115 3115 3115 3115 3115 3115 3115 3115 3114 3114 3114 3114 3114 3114 3114 3114 3114 3113 3113 3113 3113 3113 3112 3112 3112 3112 3112 3111 3111 3111 3110 3110 3110 3110 3109 3109
3106 3106 3107 3107 3108 3108 3109 3110 3110 3110 3111 3111 3111 3111 3112 3112 3112 3112 3112 3112 3112 3112 3112 3112 3111 3111 3111 3111 3111 3111 3111 3111 3111 3110 3110 3110 3110 3110 3110 3110 3109 3109 3109 3109 3108 3108 3107 3107 3107 3106 3106 3106
3103 3104 3104 3104 3104 3105 3106 3107 3107 3107 3108 3108 3107 3108 3108 3109 3109 3108 3108 3108 3109 3109 3109 3109 3109 3108 3108 3108 3108 3108 3108 3108 3108 3108 3107 3107 3107 3107 3107 3107 3106 3106 3106 3106 3105 3105 3105 3104 3104 3104 3103 3103
3100 3101 3101 3101 3101 3102 3103 3103 3104 3104 3105 3105 3104 3104 3105 3105 3105 3105 3105 3105 3105 3106 3106 3105 3105 3105 3105 3105 3105 3105 3105 3104 3104 3105 3104 3104 3104 3104 3104 3104 3103 3103 3103 3103 3102 3102 3101 3101 3101 3101 3100 3100
3096 3097 3097 3098 3098 3099 3099 3100 3100 3101 3101 3102 3101 3101 3101 3101 3101 3101 3102 3102 3102 3102 3102 3102 3102 3102 3102 3102 3102 3102 3102 3101 3101 3101 3101 3101 3101 3101 3101 3100 3100 3100 3100 3099 3099 3098 3098 3098 3097 3097 3097 3096
3092 3093 3094 3094 3095 3095 3095 3096 3097 3097 3098 3098 3098 3098 3098 3097 3097 3098 3098 3098 3098 3099 3099 3099 3098 3098 3098 3098 3098 3098 3098 3098 3098 3098 3098 3098 3097 3097 3097 3097 3097 3096 3096 3096 3095 3095 3095 3094 3094 3093 3093 3093
3089 3090 3090 3090 3090 3091 3091 3092 3093 3093 3094 3095 3095 3095 3094 3094 3094 3094 3094 3094 3094 3095 3095 3095 3095 3095 3095 3095 3095 3095 3095 3094 3094 3094 3094 3094 3094 3094 3093 3093 3093 3093 3092 3092 3092 3091 3091 3091 3090 3090 3089 3089
3085 3085 3086 3086 3087 3087 3088 3089 3089 3090 3090 3091 3091 3091 3091 3090 3090 3090 3090 3090 3090 3091 3091 3091 3091 3091 3091 3091 3091 3091 3091 3091 3090 3090 3090 3090 3090 3090 3089 3089 3089 3089 3088 3088 3088 3087 3087 3086 3086 3086 3085 3085
3081 3081 3082 3083 3083 3084 3085 3086 3086 3086 3086 3087 3087 3088 3087 3087 3087 3087 3086 3086 3087 3087 3087 3088 3087 3087 3087 3087 3087 3087 3087 3087 3086 3086 3086 3086 3086 3085 3085 3085 3085 3084 3084 3084 3083 3083 3083 3082 3082 3081 3081 3080
3077 3078 3079 3079 3080 3081 3082 3082 3081 3081 3082 3082 3083 3083 3083 3083 3083 3083 3083 3083 3083 3083 3083 3084 3083 3083 3083 3083 3083 3083 3083 3082 3082 3082 3082 3082 3081 3081 3081 3080 3080 3080 3079 3079 3079 3078 3078 3077 3077 3077 3076 3076
3073 3074 3075 3075 3076 3077 3077 3077 3077 3077 3077 3078 3078 3078 3078 3079 3079 3079 3079 3079 3079 3079 3079 3079 3079 3079 3078 3078 3079 3079 3078 3078 3078 3078 3078 3077 3077 3077 3076 3076 3076 3075 3075 3074 3074 3074 3073 3072 3072 3072 3072 3071
3069 3070 3071 3071 3071 3072 3071 3072 3072 3072 3072 3073 3073 3074 3074 3075 3076 3076 3076 3075 3075 3075 3075 3075 3075 3075 3074 3074 3074 3074 3074 3074 3074 3073 3073 3073 3072 3072 3072 3071 3071 3070 3070 3070 3070 3069 3068 3068 3067 3067 3067 3066
3066 3066 3065 3065 3066 3066 3066 3066 3067 3067 3067 3068 3069 3070 3071 3072 3073 3072 3072 3071 3070 3070 3070 3071 3071 3071 3070 3070 3070 3070 3070 3070 3070 3069 3068 3068 3067 3067 3067 3067 3066 3065 3065 3065 3065 3064 3064 3063 3062 3062 3062 3061
3061 3060 3060 3060 3061 3061 3061 3062 3062 3062 3063 3065 3065 3066 3068 3068 3068 3067 3067 3067 3066 3066 3066 3066 3066 3066 3066 3066 3065 3065 3065 3065 3065 3064 3063 3063 3063 3062 3062 3061 3061 3060 3061 3060 3059 3059 3059 3059 3058 3057 3057 3056
3056 3056 3056 3056 3056 3056 3056 3057 3058 3059 3060 3061 3060 3061 3062 3062 3062 3062 3062 3062 3062 3061 3061 3061 3061 3061 3061 3061 3060 3060 3060 3060 3060 3060 3059 3058 3057 3057 3057 3056 3055 3056 3056 3054 3053 3054 3054 3054 3053 3052 3052 3052
3052 3052 3052 3051 3051 3052 3052 3052 3054 3055 3056 3055 3055 3055 3055 3056 3056 3057 3057 3057 3057 3056 3056 3056 3056 3056 3056 3055 3055 3055 3054 3054 3055 3055 3054 3053 3052 3052 3051 3050 3050 3051 3050 3048 3048 3049 3048 3048 3048 3047 3047 3047